Погода Агзу

Погода Агзу : погода сейчас, прогноз погоды и архив. Всё, что Вы хотите узнать о погоде Агзу!

Хотите узнать прогноз погоды Агзу? Тогда Вам сюда: Погода Агзу

Поиск расширенной информации на нашем сайте:

Другие новости

Новости СМИ2

Главная страница сайта

Новости сайта

03.07.2017

Напоминаем, что на нашем специализированном сайте Метеоцентр.Азия вы можете получить высокодетализированные автоматические прогнозы погоды по пунктам России, СНГ и мира в авиационном формате (включающие направление и скорость ветра, видимость, явления погоды, количество и форму облачности, нижнюю и верхнюю границу облачности).


Погода Агзу - сегодня

Время (UTC), дата Ветер
(°,м/с) 
Видим.   Явления Облачность Т
(°С)
Тd
(°С)
f(%) Тe
(°С)
Pmin
(гПа)
dP
(гПа)
Po
(мм)
O2
(г/м3)
Тmin Tmax R s Состояние
почвы
21 21.11.17 тихо ()   20000 м    10/3 1000 м верхняя 
[Sc|Ci fib]
-19.6 -21.3 86 -20  1015.7  -2  745  325  -19.6      19  равномерный
сухой снег
100% 
00 22.11.17 тихо ()   н/о    н/о 
-17.6 -20.7 77 -18  1013  -2.5  743  322  -20.8         
03 22.11.17 240 (ЮЗ) 20000 м    3/0 верхняя 
[Ci fib]
-10 -16.7 58 -10  1007.5  -4.7  739  311           
06 22.11.17 220 (ЮЗ) н/о    н/о 
-6.8 -15.3 51 -6  1006.2  -0.9  739  307           
09 22.11.17 тихо ()   20000 м    3/3 1000 м 
[Sc]
-13.1 -16 79 -13  1007.9  1.1  740  314    -6.7       
12 22.11.17 190 (Ю) н/о    н/о 
-15.1 -17 85 -15  1009.1  740  317           
15 22.11.17 тихо ()   20000 м    3/3 1000 м 
[Sc]
-16.2 -17.3 91 -16  1009.1  740  318           
18 22.11.17 тихо ()   н/о    н/о 
-19.6 -21.2 87 -20  1009.6  0.2  740  323           
21 22.11.17 тихо ()   20000 м    3/0 верхняя 
[Ci sp]
-22.2 -24 85 -22  1009.9  740  326  -22.8      19  равномерный
сухой снег
100% 
00 23.11.17 тихо ()   н/о    н/о 
-17.3 -20 79 -17  1010.4  741  320  -23.4         
03 23.11.17 290 (З) 20000 м    ясно 
-4.8 -15 45 -4  1006.8  -2.5  739  304           
06 23.11.17 320 (СЗ) н/о    н/о 
-4.8 -15.5 43 -4  1006.2  -0.6  739  304           
09 23.11.17 тихо ()   20000 м    4/3 1000 м верхняя 
[Sc|Ci sp]
-10.9 -16.3 64 -11  1008.9  2.2  740  312    -3.6       
12 23.11.17 тихо ()   н/о    н/о 
-17.1 -19.1 84 -17  1009.8  0.3  741  320           
15 23.11.17 тихо ()   20000 м    8/4 1000 м верхняя 
[Sc|Ci sp]
-19.5 -21.2 86 -20  1009.5  -0.5  740  323           
18 23.11.17 тихо ()   н/о    н/о 
-20.7 -22.4 86 -21  1008.8  -0.5  740  324           
21 23.11.17 тихо ()   20000 м    ясно 
-22.8 -25 82 -23  1009.4  0.4  740  327  -22.8      19  равномерный
сухой снег
100% 
00 24.11.17 тихо ()   н/о    н/о 
-17.6 -20.4 79 -18  1009.7  0.7  741  320  -24         
03 24.11.17 260 (З) 20000 м    8/4 1000 м верхняя 
[Cu hum|Ci sp]
-9 -20.7 38 -12  1007.8  -1.1  740  310           
06 24.11.17 290 (З) н/о    н/о 
-10.7 -23.5 34 -13  1009.1  1.1  741  312           
09 24.11.17 350 (С) 20000 м    3/0 верхняя 
[Ci sp]
-15.4 -23.3 51 -15  1012.1  2.5  742  319    -8.6       
12 24.11.17 320 (СЗ) 1{10}  н/о    н/о 
-16.8 -25.9 45 -17  1013.9  1.7  744  321           
15 24.11.17 010 (С) 20000 м    ясно 
-19.1 -26 54 -19  1014.2  0.1  744  324           
18 24.11.17 320 (СЗ) н/о    н/о 
-18.1 -26.3 49 -21  1014.5  0.4  744  323           
21 24.11.17 360 (С) 20000 м    ясно 
-19.2 -26.9 51 -19  1015.1  0.4  744  324  -19.7      19  равномерный
сухой снег
100% 
Время (UTC), дата Ветер
(°,м/с) 
Видим.   Явления Облачность Т
(°С)
Тd
(°С)
f(%) Тe
(°С)
Pmin
(гПа)
dP
(гПа)
Po
(мм)
O2
(г/м3)
Тmin Tmax R s Состояние
почвы

Для получения пояснительной информации подведите курсор к названию столбца.

ПОГОДА Агзу - архив

Всё, что Вы хотите узнать о погоде Агзу - удобно и подробно!

Выберите нужную дату (начиная с 1 января 2015* года) и нажмите кнопку "Найти".
Будут отображены архивные сводки погоды по пункту Агзу, начиная с указанной даты.


Отображать данные в формате CSV (для использования в таблицах Excel)


Внимание! Наш архив погоды предназначен исключительно для личного некоммерческого использования в познавательных целях. Если Вам необходимы официальные справки о состоянии погоды (для производственных, юридических, коммерческих и т.п. целей), обращайтесь в органы Росгидромета.

*Примечание: данная дата относится к архиву по метеостанциям СССР (Россия, СНГ, Балтия).
Архив по метеостанциям Зарубежной Европы и Азии (кроме Китая) хранится 10 дней, по другим регионам земного шара (Китай, Африка, Америка, Австралия, Океания) - 1 день.

Агзу - район местоположения метеостанции


Название, широта, долгота, высота метеостанции:
Агзу 47.6°ш. 138.4°д. 165 м над ур. моря [Российская Федерация]

Дополнительная информация

В oтличие oт бoльшинства пoгoдных сайтoв мы публикуем пoдрoбную метеoинфoрмацию в детальнoм прoфессиoнальнoм фoрмате.

Характеристики температуры и влажнoсти вoздуха измеряются на высoте 2 м в тени вдали oт зданий и деревьев.
Скoрoсть ветра измеряется на высoте 10 м (на урoвне рoста челoвека скoрoсть ветра ниже в 1.5-2 раза). Если метеoстанция нахoдится в гoрoде или в лесу, тo скoрoсть ветра занижена на 2-4 м/с пo сравнению с oткрытым местoм. Скoрoсть ветра над акватoриями крупных рек и oзёр, а также на вершинах хoлмoв на 2-5 м/с выше, чем в oбычных услoвиях.
Атмoсфернoе давление в разных тoчках местнoсти мoжет значительнo oтличаться oт давления на метеoстанции, в зависимoсти oт услoвий рельефа (при пoдъёме на 10 м давление пoнижается примернo на 1 мм рт.ст.).